DLH6NJ EDDM-EPKK

Flight info

Callsign DLH6NJ
Flight time 0h 56m
Altitude 33000
Route BIBAG3S BIBAG Y133 BEPAS DCT NELPA DCT PADKA
Aircraft A20N/M-SDE2E3FGHIJ1RWXY/LB1

Departure

Time 2026-05-06 09:35
Airport Munich Airport (EDDM)

Arrival

Time 2026-05-06 10:31
Airport Kraków John Paul II International Airport (EPKK)
Time Latitude Longitude Altitude Speed Heading
2026-05-06 08:57 48.35283 11.79776 1485 ft 0 kts 83°
2026-05-06 09:22 48.35283 11.79774 1485 ft 1 kts 83°
2026-05-06 09:22 48.35281 11.79750 1475 ft 3 kts 85°
2026-05-06 09:22 48.35279 11.79719 1480 ft 3 kts 88°
2026-05-06 09:23 48.35279 11.79689 1473 ft 3 kts 92°
2026-05-06 09:23 48.35281 11.79659 1477 ft 3 kts 102°
2026-05-06 09:23 48.35287 11.79631 1473 ft 3 kts 130°
2026-05-06 09:23 48.35297 11.79618 1474 ft 1 kts 173°
2026-05-06 09:24 48.35302 11.79617 1475 ft 0 kts 173°
2026-05-06 09:25 48.35298 11.79618 1474 ft 2 kts 173°
2026-05-06 09:26 48.35273 11.79622 1471 ft 5 kts 173°
2026-05-06 09:26 48.35226 11.79631 1485 ft 8 kts 173°
2026-05-06 09:26 48.35160 11.79643 1483 ft 11 kts 173°
2026-05-06 09:26 48.35077 11.79657 1478 ft 13 kts 173°
2026-05-06 09:27 48.34988 11.79672 1473 ft 13 kts 174°
2026-05-06 09:27 48.34896 11.79687 1481 ft 14 kts 174°
2026-05-06 09:27 48.34824 11.79705 1475 ft 8 kts 149°
2026-05-06 09:27 48.34810 11.79796 1479 ft 11 kts 84°
2026-05-06 09:28 48.34818 11.79919 1485 ft 13 kts 83°
2026-05-06 09:28 48.34829 11.80051 1480 ft 8 kts 83°
2026-05-06 09:28 48.34830 11.80119 1485 ft 7 kts 101°
2026-05-06 09:28 48.34800 11.80191 1475 ft 10 kts 135°
2026-05-06 09:29 48.34733 11.80239 1480 ft 12 kts 166°
2026-05-06 09:29 48.34659 11.80257 1482 ft 6 kts 171°
2026-05-06 09:29 48.34638 11.80260 1474 ft 4 kts 174°
2026-05-06 09:29 48.34599 11.80266 1479 ft 7 kts 174°
2026-05-06 09:30 48.34580 11.80269 1474 ft 0 kts 173°
2026-05-06 09:31 48.34576 11.80270 1477 ft 2 kts 173°
2026-05-06 09:32 48.34553 11.80274 1475 ft 4 kts 173°
2026-05-06 09:32 48.34514 11.80281 1474 ft 5 kts 173°
2026-05-06 09:32 48.34475 11.80259 1480 ft 7 kts 228°
2026-05-06 09:32 48.34463 11.80198 1483 ft 0 kts 261°
2026-05-06 09:33 48.34462 11.80193 1479 ft 0 kts 261°
2026-05-06 09:34 48.34462 11.80192 1479 ft 1 kts 261°
2026-05-06 09:34 48.34450 11.80066 1474 ft 40 kts 262°
2026-05-06 09:34 48.34388 11.79282 1485 ft 108 kts 263°
2026-05-06 09:34 48.34279 11.77893 1487 ft 158 kts 264°
2026-05-06 09:35 48.34160 11.76184 1961 ft 163 kts 265°
2026-05-06 09:35 48.34059 11.74486 2653 ft 163 kts 265°
2026-05-06 09:35 48.33820 11.72823 3194 ft 169 kts 244°
2026-05-06 09:35 48.33070 11.71395 3676 ft 181 kts 217°
2026-05-06 09:36 48.31935 11.70540 4225 ft 194 kts 194°
2026-05-06 09:36 48.30512 11.70361 4689 ft 216 kts 174°
2026-05-06 09:36 48.28974 11.70876 5302 ft 233 kts 159°
2026-05-06 09:36 48.27609 11.71952 6219 ft 226 kts 145°
2026-05-06 09:37 48.26247 11.73393 6835 ft 243 kts 147°
2026-05-06 09:37 48.24804 11.74854 7343 ft 265 kts 147°
2026-05-06 09:37 48.23237 11.76427 8135 ft 273 kts 148°
2026-05-06 09:37 48.21650 11.78023 9102 ft 277 kts 148°
2026-05-06 09:38 48.20049 11.79662 10019 ft 282 kts 144°
2026-05-06 09:38 48.18773 11.81933 10911 ft 291 kts 120°
2026-05-06 09:38 48.18255 11.84701 11711 ft 302 kts 96°
2026-05-06 09:38 48.18379 11.87887 12572 ft 310 kts 87°
2026-05-06 09:39 48.18644 11.91122 13443 ft 314 kts 86°
2026-05-06 09:39 48.18922 11.94370 14202 ft 318 kts 86°
2026-05-06 09:39 48.19191 11.97679 14898 ft 325 kts 85°
2026-05-06 09:39 48.19906 12.01049 15165 ft 353 kts 64°
2026-05-06 09:40 48.21305 12.04213 15388 ft 377 kts 54°
2026-05-06 09:40 48.22976 12.07360 15824 ft 389 kts 53°
2026-05-06 09:40 48.26337 12.13846 17216 ft 398 kts 55°
2026-05-06 09:41 48.27984 12.17219 17892 ft 403 kts 56°
2026-05-06 09:41 48.29622 12.20649 18503 ft 408 kts 56°
2026-05-06 09:41 48.31284 12.24163 19067 ft 413 kts 56°
2026-05-06 09:41 48.32952 12.27701 19641 ft 418 kts 56°
2026-05-06 09:42 48.34639 12.31284 20203 ft 423 kts 57°
2026-05-06 09:42 48.36348 12.34916 20754 ft 428 kts 57°
2026-05-06 09:42 48.38079 12.38598 21314 ft 433 kts 57°
2026-05-06 09:42 48.39828 12.42322 21854 ft 438 kts 57°
2026-05-06 09:43 48.41600 12.46099 22379 ft 443 kts 57°
2026-05-06 09:43 48.43363 12.49860 22911 ft 448 kts 57°
2026-05-06 09:43 48.45168 12.53719 23421 ft 453 kts 57°
2026-05-06 09:43 48.46990 12.57617 23898 ft 457 kts 57°
2026-05-06 09:44 48.48829 12.61558 24364 ft 460 kts 57°
2026-05-06 09:44 48.50678 12.65527 24823 ft 464 kts 57°
2026-05-06 09:44 48.52538 12.69525 25271 ft 468 kts 57°
2026-05-06 09:44 48.54409 12.73552 25714 ft 471 kts 57°
2026-05-06 09:45 48.56307 12.77644 26145 ft 475 kts 57°
2026-05-06 09:45 48.58203 12.81738 26574 ft 478 kts 57°
2026-05-06 09:45 48.60118 12.85879 26981 ft 482 kts 57°
2026-05-06 09:45 48.62047 12.90056 27390 ft 485 kts 57°
2026-05-06 09:46 48.63983 12.94255 27776 ft 489 kts 57°
2026-05-06 09:46 48.65926 12.98474 28160 ft 492 kts 57°
2026-05-06 09:46 48.67891 13.02750 28533 ft 495 kts 57°
2026-05-06 09:46 48.69788 13.06883 28870 ft 498 kts 57°
2026-05-06 09:47 48.71746 13.11156 29214 ft 501 kts 57°
2026-05-06 09:47 48.73743 13.15521 29560 ft 504 kts 57°
2026-05-06 09:47 48.75747 13.19909 29872 ft 508 kts 57°
2026-05-06 09:47 48.77755 13.24311 30192 ft 510 kts 57°
2026-05-06 09:48 48.79776 13.28751 30518 ft 512 kts 57°
2026-05-06 09:48 48.81803 13.33208 30828 ft 514 kts 57°
2026-05-06 09:48 48.83838 13.37694 31218 ft 514 kts 57°
2026-05-06 09:48 48.85864 13.42165 31653 ft 514 kts 57°
2026-05-06 09:49 48.87913 13.46696 32081 ft 513 kts 57°
2026-05-06 09:49 48.89186 13.49717 32363 ft 511 kts 61°
2026-05-06 09:49 48.91265 13.56167 32752 ft 507 kts 70°
2026-05-06 09:49 48.92145 13.59463 32817 ft 506 kts 70°
2026-05-06 09:50 48.94834 13.69370 32819 ft 506 kts 70°
2026-05-06 09:50 48.97515 13.79254 32820 ft 506 kts 70°
2026-05-06 09:51 49.00186 13.89164 32819 ft 505 kts 70°
2026-05-06 09:51 49.02850 13.99101 32822 ft 505 kts 70°
2026-05-06 09:52 49.05483 14.08960 32820 ft 505 kts 70°
2026-05-06 09:52 49.08087 14.18752 32821 ft 505 kts 70°
2026-05-06 09:53 49.10715 14.28678 32822 ft 504 kts 70°
2026-05-06 09:53 49.13317 14.38546 32815 ft 504 kts 70°
2026-05-06 09:54 49.15892 14.48358 32816 ft 504 kts 70°
2026-05-06 09:54 49.18493 14.58309 32823 ft 504 kts 70°
2026-05-06 09:55 49.21087 14.68278 32825 ft 504 kts 70°
2026-05-06 09:55 49.23671 14.78246 32827 ft 504 kts 70°
2026-05-06 09:56 49.26249 14.88241 32827 ft 504 kts 70°
2026-05-06 09:56 49.28707 14.98289 32830 ft 502 kts 75°
2026-05-06 09:57 49.30851 15.08472 32834 ft 502 kts 74°
2026-05-06 09:57 49.33024 15.18674 32836 ft 502 kts 74°
2026-05-06 09:58 49.35178 15.28879 32837 ft 502 kts 74°
2026-05-06 09:58 49.37311 15.39070 32839 ft 502 kts 75°
2026-05-06 09:59 49.39434 15.49269 32833 ft 501 kts 75°
2026-05-06 09:59 49.41547 15.59473 32833 ft 501 kts 75°
2026-05-06 10:00 49.43647 15.69666 32830 ft 500 kts 75°
2026-05-06 10:00 49.45737 15.79859 32828 ft 500 kts 75°
2026-05-06 10:01 49.47814 15.90039 32829 ft 499 kts 75°
2026-05-06 10:01 49.49886 16.00249 32828 ft 497 kts 75°
2026-05-06 10:02 49.51936 16.10406 32835 ft 497 kts 75°
2026-05-06 10:02 49.53936 16.20362 32811 ft 495 kts 75°
2026-05-06 10:03 49.55960 16.30496 32805 ft 493 kts 75°
2026-05-06 10:03 49.57963 16.40572 32815 ft 491 kts 75°
2026-05-06 10:04 49.59940 16.50576 32828 ft 493 kts 75°
2026-05-06 10:04 49.61934 16.60716 32823 ft 493 kts 75°
2026-05-06 10:05 49.63913 16.70826 32829 ft 492 kts 76°
2026-05-06 10:05 49.65878 16.80924 32835 ft 491 kts 76°
2026-05-06 10:06 49.67836 16.91037 32828 ft 491 kts 76°
2026-05-06 10:06 49.69783 17.01149 32829 ft 490 kts 76°
2026-05-06 10:07 49.71717 17.11244 32826 ft 489 kts 76°
2026-05-06 10:07 49.73638 17.21328 32824 ft 489 kts 76°
2026-05-06 10:08 49.75544 17.31385 32822 ft 489 kts 76°
2026-05-06 10:08 49.77450 17.41499 32822 ft 489 kts 76°
2026-05-06 10:09 49.79348 17.51622 32816 ft 490 kts 76°
2026-05-06 10:09 49.81238 17.61760 32817 ft 490 kts 76°
2026-05-06 10:10 49.83119 17.71908 32573 ft 493 kts 76°
2026-05-06 10:10 49.84065 17.77030 32012 ft 494 kts 76°
2026-05-06 10:10 49.85010 17.82160 31235 ft 496 kts 76°
2026-05-06 10:11 49.85958 17.87321 30310 ft 500 kts 76°
2026-05-06 10:11 49.86910 17.92515 29610 ft 497 kts 76°
2026-05-06 10:11 49.87840 17.97602 29129 ft 488 kts 76°
2026-05-06 10:11 49.88755 18.02622 28544 ft 481 kts 76°
2026-05-06 10:12 49.89653 18.07569 27989 ft 474 kts 76°
2026-05-06 10:12 49.90535 18.12437 27431 ft 468 kts 76°
2026-05-06 10:12 49.91412 18.17292 26881 ft 462 kts 76°
2026-05-06 10:12 49.92274 18.22075 26335 ft 457 kts 76°
2026-05-06 10:13 49.92935 18.26835 25799 ft 450 kts 83°
2026-05-06 10:13 49.93224 18.31650 25263 ft 443 kts 91°
2026-05-06 10:13 49.93152 18.36391 24753 ft 436 kts 96°
2026-05-06 10:13 49.92990 18.41133 24188 ft 433 kts 95°
2026-05-06 10:14 49.92837 18.45781 23724 ft 427 kts 97°
2026-05-06 10:14 49.92623 18.50363 23522 ft 429 kts 95°
2026-05-06 10:14 49.92467 18.55075 23272 ft 446 kts 95°
2026-05-06 10:14 49.92299 18.59896 23001 ft 456 kts 95°
2026-05-06 10:15 49.92106 18.64796 22727 ft 452 kts 96°
2026-05-06 10:15 49.91897 18.69625 22459 ft 448 kts 96°
2026-05-06 10:15 49.91676 18.74442 22194 ft 446 kts 96°
2026-05-06 10:15 49.91445 18.79308 22013 ft 452 kts 96°
2026-05-06 10:16 49.91212 18.84158 21713 ft 450 kts 96°
2026-05-06 10:16 49.90977 18.89005 21104 ft 449 kts 97°
2026-05-06 10:16 49.90743 18.93815 20488 ft 445 kts 97°
2026-05-06 10:16 49.90509 18.98576 19834 ft 440 kts 97°
2026-05-06 10:17 49.90276 19.03293 19172 ft 436 kts 97°
2026-05-06 10:17 49.90043 19.07962 18539 ft 432 kts 97°
2026-05-06 10:17 49.89809 19.12601 17833 ft 428 kts 97°
2026-05-06 10:17 49.89576 19.17172 17099 ft 424 kts 97°
2026-05-06 10:18 49.89342 19.21712 16383 ft 420 kts 97°
2026-05-06 10:18 49.89342 19.26236 15692 ft 419 kts 86°
2026-05-06 10:18 49.89556 19.28554 15331 ft 418 kts 81°
2026-05-06 10:18 49.90388 19.32950 14643 ft 416 kts 69°
2026-05-06 10:19 49.91552 19.37050 13987 ft 413 kts 67°
2026-05-06 10:19 49.92685 19.41069 13305 ft 409 kts 67°
2026-05-06 10:19 49.93806 19.45088 12630 ft 405 kts 68°
2026-05-06 10:19 49.94809 19.49146 11963 ft 400 kts 74°
2026-05-06 10:20 49.95452 19.53348 11287 ft 397 kts 80°
2026-05-06 10:20 49.96000 19.57523 10675 ft 393 kts 79°
2026-05-06 10:20 49.96373 19.60295 10473 ft 385 kts 79°
2026-05-06 10:20 49.96915 19.64277 10290 ft 369 kts 79°
2026-05-06 10:21 49.97438 19.68117 10137 ft 354 kts 79°
2026-05-06 10:21 49.97933 19.71757 9946 ft 335 kts 79°
2026-05-06 10:21 49.98404 19.75236 9779 ft 324 kts 79°
2026-05-06 10:21 49.98863 19.78628 9491 ft 318 kts 79°
2026-05-06 10:22 49.99316 19.81969 9208 ft 312 kts 79°
2026-05-06 10:22 49.99770 19.85240 8911 ft 307 kts 79°
2026-05-06 10:22 50.00232 19.88468 8553 ft 305 kts 79°
2026-05-06 10:22 50.00695 19.91664 8198 ft 302 kts 79°
2026-05-06 10:23 50.01157 19.94847 7852 ft 300 kts 79°
2026-05-06 10:23 50.01617 19.97966 7513 ft 298 kts 79°
2026-05-06 10:23 50.02070 20.01093 7175 ft 295 kts 79°
2026-05-06 10:23 50.02526 20.04196 6843 ft 293 kts 79°
2026-05-06 10:24 50.02978 20.07278 6517 ft 292 kts 79°
2026-05-06 10:24 50.03431 20.10341 6164 ft 287 kts 79°
2026-05-06 10:24 50.03872 20.13327 5826 ft 279 kts 79°
2026-05-06 10:24 50.04433 20.16175 5478 ft 275 kts 63°
2026-05-06 10:25 50.05676 20.18383 5156 ft 271 kts 32°
2026-05-06 10:25 50.07379 20.19420 4881 ft 267 kts
2026-05-06 10:25 50.09221 20.19367 4539 ft 264 kts 353°
2026-05-06 10:25 50.10981 20.18855 4349 ft 253 kts 329°
2026-05-06 10:26 50.12189 20.17073 4238 ft 233 kts 293°
2026-05-06 10:26 50.12571 20.14722 4123 ft 219 kts 269°
2026-05-06 10:26 50.12461 20.12416 4006 ft 210 kts 259°
2026-05-06 10:26 50.12178 20.10188 3841 ft 211 kts 255°
2026-05-06 10:27 50.11858 20.07935 3643 ft 213 kts 257°
2026-05-06 10:27 50.11543 20.05676 3479 ft 212 kts 255°
2026-05-06 10:27 50.11237 20.03439 3305 ft 210 kts 255°
2026-05-06 10:27 50.10932 20.01227 3140 ft 208 kts 255°
2026-05-06 10:28 50.10628 19.99043 3013 ft 202 kts 256°
2026-05-06 10:28 50.10339 19.96956 3043 ft 190 kts 255°
2026-05-06 10:28 50.10077 19.95045 2997 ft 170 kts 254°
2026-05-06 10:28 50.09843 19.93393 3001 ft 145 kts 255°
2026-05-06 10:29 50.09643 19.91961 2993 ft 130 kts 254°
2026-05-06 10:29 50.09453 19.90606 2746 ft 128 kts 252°
2026-05-06 10:29 50.09240 19.89170 2284 ft 142 kts 252°
2026-05-06 10:29 50.09047 19.87629 1822 ft 147 kts 254°
2026-05-06 10:30 50.08830 19.86134 1502 ft 134 kts 255°
2026-05-06 10:30 50.08640 19.84754 1393 ft 129 kts 257°
2026-05-06 10:30 50.08479 19.83425 1209 ft 122 kts 253°
2026-05-06 10:30 50.08263 19.82097 1057 ft 128 kts 256°
2026-05-06 10:31 50.08095 19.80732 933 ft 129 kts 255°
2026-05-06 10:31 50.07902 19.79410 809 ft 116 kts 255°
2026-05-06 10:31 50.07759 19.78405 801 ft 59 kts 258°
2026-05-06 10:31 50.07715 19.78118 798 ft 17 kts 228°
2026-05-06 10:32 50.07605 19.78091 799 ft 17 kts 182°
2026-05-06 10:32 50.07497 19.78088 799 ft 12 kts 164°
2026-05-06 10:32 50.07481 19.78206 799 ft 14 kts 78°
2026-05-06 10:32 50.07504 19.78371 800 ft 17 kts 77°
2026-05-06 10:33 50.07532 19.78571 800 ft 21 kts 77°
2026-05-06 10:33 50.07564 19.78802 800 ft 24 kts 78°
2026-05-06 10:33 50.07601 19.79066 800 ft 26 kts 77°
2026-05-06 10:33 50.07631 19.79281 800 ft 26 kts 78°
2026-05-06 10:34 50.07667 19.79550 800 ft 26 kts 78°
2026-05-06 10:34 50.07655 19.79693 800 ft 12 kts 144°
2026-05-06 10:34 50.07561 19.79731 800 ft 16 kts 167°
2026-05-06 10:34 50.07443 19.79763 800 ft 18 kts 169°
2026-05-06 10:35 50.07377 19.79852 800 ft 15 kts 89°
2026-05-06 10:35 50.07396 19.80012 800 ft 14 kts 78°
2026-05-06 10:35 50.07400 19.80084 800 ft 5 kts 101°
2026-05-06 10:35 50.07380 19.80092 800 ft 4 kts 187°
2026-05-06 10:36 50.07351 19.80099 800 ft 4 kts 168°
2026-05-06 10:36 50.07337 19.80103 800 ft 3 kts 168°
2026-05-06 10:36 50.07334 19.80104 800 ft 0 kts 168°